Terminal Aerodrome Forecast
Issued by NWS

Home | Current Version | Previous Version | Text Only | Print | Product List | Glossary Off
Versions: 1 2 3 4 5 6 7 8 9 10 11 12 13 14 15 16 17 18

000
FTUS43 KFGF 171700
TAFBJI
TAF
KBJI 171732Z 1718/1818 23012KT P6SM SKC
     FM172000 27014G21KT P6SM SKC
     FM180000 31012KT P6SM SKC
     FM180200 VRB05KT P6SM SKC
     FM181500 12009KT P6SM BKN250=

USA.gov is the U.S. government's official web portal to all federal, state and local government web resources and services.